sat.trackr.live / text

‹ back to catalog

TIANQI-29

NORAD 61195 · 2024-170A

PAYLOAD ACTIVE UNKNOWN

§ Identity

Operator
Country
PRC
Launch date
2024-09-20
Launch site
XICLF
Launch vehicle
Mass (kg)
RCS (m²)

External: N2YO · Heavens-Above · Gunter

§ Orbital elements

Epoch: 2026-09-22T18:00:35.030880Z

Period
103.02 min
Inclination
44.8570°
Eccentricity
0.0006862
Mean motion
13.97727461 rev/d
Perigee alt
896.7 km
Apogee alt
906.7 km
Semi-major
7,279.8 km
B*
7.5334e-5
RAAN
62.6379°
Arg perigee
197.3669°
Mean anomaly
162.6928°
Rev number
10,251

§ Raw data

TIANQI-291 61195U 24170A   26265.75040545 -.00000020  00000+0  75334-4 0  99952 61195  44.8570  62.6379 0006862 197.3669 162.6928 13.97727461102518

JSON: /api/v1/satellites/61195 · /tle

For live sub-satellite position, see the globe view (requires WebGL).

§ Visibility from observer

Set your observer location to see the next 7 days of passes ≥ 10°. The values pass through the URL so the page stays shareable.

No JS? Fill the form by hand. The geolocation button needs JavaScript.